This is the latest recevied weather packets stored in our database for station/object HS5SQI-2. If no packets are shown the sender has not sent any weather packets the latest 10 day(s).
| Time | Temp. | Humidity | Pressure | Rain* | Wind** | Luminosity | Snow |
|---|---|---|---|---|---|---|---|
| 1777984372 | 33.89° C | 66% | 1006 hPa | - | - | 0 W/m² | - |
| 1777981884 | 33.89° C | 68% | 1005 hPa | - | - | 0 W/m² | - |
| 1777981262 | 34.44° C | 65% | 1004 hPa | - | - | 0 W/m² | - |
| 1777980639 | 34.44° C | 65% | 1004 hPa | - | - | 0 W/m² | - |
| 1777978773 | 35° C | 60% | 1004 hPa | - | - | 0 W/m² | - |
| 1777977529 | 35.56° C | 59% | 1004 hPa | - | - | 0 W/m² | - |
| 1777976907 | 35° C | 59% | 1004 hPa | - | - | 0 W/m² | - |
| 1777976285 | 35.56° C | 58% | 1004 hPa | - | - | 0 W/m² | - |
| 1777975663 | 35.56° C | 58% | 1004 hPa | - | - | 0 W/m² | - |
| 1777975041 | 35.56° C | 59% | 1004 hPa | - | - | 0 W/m² | - |
| 1777973797 | 35.56° C | 61% | 1004 hPa | - | - | 0 W/m² | - |
| 1777973175 | 35.56° C | 60% | 1004 hPa | - | - | 0 W/m² | - |
| 1777972553 | 35.56° C | 60% | 1004 hPa | - | - | 0 W/m² | - |
| 1777971931 | 35° C | 59% | 1004 hPa | - | - | 0 W/m² | - |
| 1777971309 | 35.56° C | 57% | 1004 hPa | - | - | 0 W/m² | - |
| 1777970065 | 36.67° C | 57% | 1004 hPa | - | - | 0 W/m² | - |
| 1777969443 | 37.22° C | 56% | 1005 hPa | - | - | 0 W/m² | - |
| 1777968821 | 36.67° C | 58% | 1005 hPa | - | - | 0 W/m² | - |
| 1777968199 | 37.78° C | 51% | 1005 hPa | - | - | 0 W/m² | - |
| 1777967577 | 37.22° C | 56% | 1005 hPa | - | - | 0 W/m² | - |
| 1777966955 | 37.78° C | 55% | 1005 hPa | - | - | 0 W/m² | - |
| 1777966333 | 37.78° C | 54% | 1005 hPa | - | - | 0 W/m² | - |
| 1777965711 | 37.78° C | 52% | 1005 hPa | - | - | 0 W/m² | - |
| 1777965089 | 37.22° C | 53% | 1005 hPa | - | - | 0 W/m² | - |
| 1777964467 | 37.22° C | 57% | 1005 hPa | - | - | 0 W/m² | - |
* Rain since midnight (hover to see other rain measurements)
** Current wind speed in m/s (hover to see current wind gust speed)